Location: Aalen
(48.8330°N, 10.1000°E)
Time: 00:25:25
(UTC+02:00)

O/OREOS (USA 219) - Pass Details

Date: 02 April 2023
Orbit: 621 x 646 km, 72.0° (Epoch: 22 May)

Event Time Altitude Azimuth Distance (km) Brightness Sun altitude
Exits shadow 06:12:35 - 215° (SW) 2,638 ? -7.8°
Reaches altitude 10° 06:14:08 10° 217° (SW) 2,033 ? -7.6°
Maximum altitude 06:18:39 63° 299° (WNW) 717 ? -6.9°
Drops below altitude 10° 06:23:12 10° 21° (NNE) 2,033 ? -6.1°
Sets 06:25:29 0° 25° (NNE) 2,941 ? -5.8°
